THOR ABLESTAR DEB, 541

Orbit data source: Space-Track

THOR ABLESTAR DEB, 541 is space debris in LEO originally from a launch on Thu, 29 Jun 1961 UTC launched from the Air Force Eastern Test Range (AFETR). Debris objects in space refer to the collection of defunct objects orbiting the Earth. Examples of debris include non-operational satellites, rocket bodies, and fragments generated from explosions, collisions, or faulty payload assembly.

Loading next visibility...
Identifier
541, 1961-015GA
Orbit
LEO
Country
Flag of USUS
Related business
Manufacturer
Unknown
Mission
Spacecraft
Bus & Motor
Unknown
Mass
Unknown
Launch date (UTC)
1961-06-29 (64 years ago)
Launch vehicle
Unknown
Launch site
Air Force Eastern Test Range (AFETR)
Object type
Payload
Rocket body
Debris
Shape & HBR
Unknown shape, 0.1 m
Radar Cross Section
Small (<0.1 m²)

Expand to show TLE details & history
Last TLE update: 17 hours ago

TLE from 17 hours ago
0 THOR ABLESTAR DEB
1 00541U 61015GA  25304.11787217  .00000326  00000-0  33801-3 0  9990
2 00541  67.2183 229.2360 0070660  92.6253 268.2918 13.86233028240579
Epoch: 2025-10-31T02:49Z
TLE epoch observation values (Epoch: 2025-10-31T02:49:44.155Z)
Latitude
Longitude
147.13512°
Altitude
945.872 km
Speed
7.378 km/s
True Right ascension
15h 16m 56s
True Declination
0° 00' 00"
Sunlit
Object was in daylight at epoch
Visualization orbit readout
Latitude
Unknown
Longitude
Unknown
Altitude
Unknown
Speed
Unknown
Apparent Right ascension
Unknown
Apparent Declination
Unknown
Sunlit
N/A
Visualization observer readout
Local Sidereal Time
15:06:48
Azimuth
Unknown
Elevation
Unknown
Doppler factor
Unknown
Orbital elements
Apogee altitude
991.923 km
Perigee altitude
888.5 km
Semi-major axis
7,318.348 km
Eccentricity
0.00707
Inclination
67.2183°
RAAN
229.236°
Arg. of periapsis
92.6253°
True anomaly
267.4827°
Mean anomaly
268.2918°
Eccentric anomaly
267.88722°
Mean motion
3.46676 °/min
Orbital period
103.84 mins
BSTAR
0.00033801
Loading maneuver chart data...
Computing Atmospheric mass density...

Documentation

Showing up to 5 results
|